Regional Weather Roundup
Issued by NWS

Home | Current Version | Previous Version | Graphics & Text | Print | Product List | Glossary On
Versions: 1 2 3 4 5 6 7 8 9 10 11 12 13 14 15 16 17 18 19 20 21 22 23 24 25 26 27 28 29 30 31 32 33 34 35 36 37 38 39 40 41 42 43 44 45 46 47 48 49 50
000
ASUS43 KBIS 222102
RWRND

NORTH DAKOTA REGIONAL WEATHER ROUNDUP
NATIONAL WEATHER SERVICE BISMARCK ND
400 PM CDT THU JUN 22 2017

NOTE: "FAIR" INDICATES FEW OR NO CLOUDS BELOW 12,000 FEET WITH NO
SIGNIFICANT WEATHER AND/OR OBSTRUCTIONS TO VISIBILITY.


NDZ001>003-009>011-017-222200-
NORTHWEST NORTH DAKOTA

CITY           SKY/WX    TMP DP  RH WIND       PRES   REMARKS
WILLISTON      CLOUDY    69  34  27 NW25G40   29.84R
MINOT          CLOUDY    72  32  23 W28G43    29.75R
MINOT AFB      CLOUDY    69  34  27 W35G47    29.72S
$$

NDZ018>021-031>035-040>046-222200-
SOUTHWEST NORTH DAKOTA

CITY           SKY/WX    TMP DP  RH WIND       PRES   REMARKS
BISMARCK       MOSUNNY   77  32  19 W21G31    29.82R
DICKINSON      CLOUDY    71  28  20 W22G37    29.87S
GARRISON         N/A     69  35  28 W26G37    29.79S
HETTINGER ARPT MOSUNNY   73  28  18 NW26G35   29.90S
$$

NDZ004>008-012>016-024-026-027-054-222200-
NORTHEAST NORTH DAKOTA

CITY           SKY/WX    TMP DP  RH WIND       PRES   REMARKS
GRAND FORKS    PTSUNNY   77  41  27 W23G32    29.68R
GRND FRKS AFB  MOSUNNY   74  39  28 W23G32    29.69R
DEVILS LAKE    MOSUNNY   71  38  29 W29G38    29.70F
$$

NDZ022-023-025-028>030-036>039-047>053-222200-
SOUTHEAST NORTH DAKOTA

CITY           SKY/WX    TMP DP  RH WIND       PRES   REMARKS
FARGO          SUNNY     79  38  22 W24G35    29.71R
JAMESTOWN      MOSUNNY   74  38  27 NW23G29   29.76S
$$




USA.gov is the U.S. government's official web portal to all federal, state and local government web resources and services.